weather.gov     
National Weather Service

Terminal Aerodrome Forecast
NWS Homepage
This page is being discontinued on March 12, 2014.
The same data is available at this site. Please update your bookmarks.
Thank you, and we apologize for the inconvenience.
Please send an email to SR-SRH.Webmaster@noaa.gov with any concerns.


Current Version
Previous Version:    01  02  03  04  05  06  07  08  09  10  11  12  13  14  15  16  17  18  19  20  21  22  23  
[Printable]
214
FTUS44 KJAN 301100
TAFGTR
TAF
KGTR 301136Z 3012/3112 17003KT P6SM VCSH SCT080 OVC150
     FM301500 17008KT P6SM VCSH BKN025
     FM302000 19007KT 3SM SHRA VCTS BKN025CB
     FM310000 16004KT P6SM SCT020 BKN050
     FM310600 16005KT P6SM OVC015=


U.S. Dept. of Commerce
NOAA National Weather Service
1325 East West Highway
Silver Spring, MD 20910
E-mail: w-nws.webmaster@noaa.gov
Page last modified: May 16, 2007
NATIONAL WEATHER SERVICE: for Safety, for Work, for Fun - FOR LIFE